Location: Gleizolles
(44.4833°N, 6.7667°E)
Time: 07:24:52
(UTC+00:00)

PCSat - Pass Details

Date: 08 December 2022
Orbit: 785 x 793 km, 67.0° (Epoch: 27 January)

Event Time Altitude Azimuth Distance (km) Brightness Sun altitude
Rises 17:29:35 0° 201° (SSW) 3,264 13.3 -16.5°
Reaches altitude 10° 17:31:59 10° 199° (SSW) 2,341 12.5 -16.9°
Maximum altitude 17:37:18 67° 117° (ESE) 854 9.5 -17.9°
Enters shadow 17:40:14 27° 42° (NE) 1,481 10.5 -18.4°
